Location: Newark
(48.6676°N, 6.1917°E)
Time: 15:49:28
(UTC+00:00)

N. Korean satellite - Pass Details

Date: 15 December 2019
Orbit: 454 x 508 km, 97.2° (Epoch: 17 January)

Event Time Altitude Azimuth Distance (km) Brightness Sun altitude
Rises 16:37:35 0° 171° (S) 2,596 10.5 -9.1°
Reaches altitude 10° 16:39:41 10° 173° (S) 1,712 9.6 -9.4°
Maximum altitude 16:43:21 71° 258° (WSW) 534 6.9 -10.0°
Drops below altitude 10° 16:47:02 10° 343° (NNW) 1,704 9.3 -10.5°
Sets 16:49:07 0° 346° (NNW) 2,583 10.2 -10.8°
